Home   Weather   Charleston   Past weeks

Flag for USA Past Weather in Charleston, West Virginia, USA — Yesterday and Last 2 Weeks

50 °F


Feels Like: 48 °F
Forecast: 43 / 65 °F
Wind: 5 mph from North

Location: Yeager Airport

Current Time: Oct 28, 2016 at 6:17:21 AM

Latest Report: Oct 28, 2016 at 4:54 AM

Visibility: 10 mi

Pressure: 30.27 "Hg

Humidity: 68%

Dew Point: 40 °F

Location of CharlestonLocation

Past Weather in Charleston — Graph


Charleston Temperature Yesterday

Maximum temperature yesterday: 67 °F (at 10:54 AM)
Minimum temperature yesterday: 54 °F (at 11:54 PM)
Average temperature yesterday: 61 °F

High & Low Weather Summary for the Past Weeks

High84 °F (Oct 19, 4:54 PM)100% (Oct 23, 3:54 AM)30.42 "Hg (Oct 23, 3:54 AM)
Low36 °F (Oct 25, 6:54 AM)35% (Oct 26, 4:54 PM)29.66 "Hg (Oct 21, 4:54 AM)
Average60 °F73%30.10 "Hg
* Reported Oct 13 4:54 AM — Oct 28 4:54 AM, Charleston, Weather by CustomWeather, © 2016

Note: Actual official high and low records may vary slightly from our data, if they occured in-between our weather recording intervals... More about our weather records


Charleston Weather History for the Previous 24 Hours

Scroll right to see more
Time TempWeatherWind HumidityBarometerVisibility
4:54 AM
Fri, Oct 28
50 °FOvercast.5 mph68%30.27 "Hg10 mi
3:54 AM51 °FOvercast.6 mph66%30.26 "Hg10 mi
2:54 AM51 °FOvercast.5 mph74%30.25 "Hg10 mi
1:54 AM52 °FOvercast.3 mph69%30.24 "Hg10 mi
12:54 AM53 °FPassing clouds.6 mph66%30.25 "Hg10 mi
11:54 PM
Thu, Oct 27
54 °FOvercast.10 mph64%30.25 "Hg10 mi
10:54 PM55 °FPassing clouds.9 mph67%30.23 "Hg10 mi
9:54 PM56 °FPassing clouds.9 mph70%30.22 "Hg10 mi
8:54 PM58 °FPassing clouds.9 mph72%30.20 "Hg10 mi
7:54 PM60 °FMostly cloudy.10 mph75%30.17 "Hg10 mi
6:54 PM62 °FPassing clouds.14 mph73%30.14 "Hg10 mi
5:54 PM65 °FPartly sunny.12 mph73%30.10 "Hg10 mi
4:54 PM66 °FBroken clouds.12 mph70%30.10 "Hg10 mi
3:54 PM65 °FOvercast.10 mph73%30.10 "Hg9 mi
2:54 PM63 °FLight rain. Overcast.8 mph84%30.09 "Hg9 mi
1:54 PM63 °FLight rain. Overcast.9 mph81%30.10 "Hg6 mi
12:54 PM63 °FOvercast.3 mph81%30.11 "Hg9 mi
11:54 AM63 °FLight rain. Mostly cloudy.9 mph78%30.12 "Hg6 mi
10:54 AM67 °FMore clouds than sun.14 mph61%30.11 "Hg10 mi
9:54 AM65 °FLight rain. Cloudy.10 mph66%30.11 "Hg7 mi
8:54 AM65 °FMostly cloudy.9 mph59%30.11 "Hg10 mi
7:54 AM61 °FBroken clouds.5 mph65%30.10 "Hg10 mi
6:54 AM62 °FMostly cloudy.No wind60%30.09 "Hg10 mi
Weather by CustomWeather, © 2016

See weather overviewHow to use our weather pages